Weather History for KEWR - May, 2012

Change the Weather History Date:

Friday, May 11, 2012

  Actual Average Record
Temperature  
Mean Temperature 61 °F 61 °F  
Max Temperature 73 °F 71 °F 93 °F (1993)
Min Temperature 48 °F 52 °F 36 °F (1966)
Degree Days  
Heating Degree Days 4 5  
Month to date heating degree days 49 70  
Since 1 July heating degree days 3687 4790  
Cooling Degree Days 0 1  
Month to date cooling degree days 0 11  
Year to date cooling degree days 28 23  
Growing Degree Days 10 (Base 50)    
Moisture  
Dew Point 31 °F    
Average Humidity 39    
Maximum Humidity 61    
Minimum Humidity 17    
Precipitation  
Precipitation 0.00 in 0.13 in 2.30 in (1981)
Month to date precipitation 1.49 1.37  
Year to date precipitation 10.21 16.17  
Snow  
Snow 0.00 in 0.00 in 0.00 in (2002)
Month to date snowfall 0.0 0.0  
Since 1 July snowfall 8.8 28.5  
Snow Depth 0.00 in    
Sea Level Pressure  
Sea Level Pressure 29.97 in    
Wind  
Wind Speed 13 mph (WNW)    
Max Wind Speed 25 mph    
Max Gust Speed 36 mph    
Visibility 10 miles    
Events      
T = Trace of Precipitation, MM = Missing Value Source: NWS Daily Summary

Daily Weather History Graph

Daily Weather History Graph

Search for Another Location

Airport or City:

Trip Planner

Search our weather history database for the weather conditions in past years. The results will help you decide how hot, cold, wet, or windy it might be!

Date:

Astronomy

May. 11, 2012 Rise Set
Actual Time 5:43 AM EDT 8:03 PM EDT
Civil Twilight 5:12 AM EDT 8:34 PM EDT
Nautical Twilight 4:34 AM EDT 9:12 PM EDT
Astronomical Twilight 3:52 AM EDT 9:54 PM EDT
Moon 12:41 AM EDT (5/11) 11:13 AM EDT (5/11)
Length of Visible Light 15h 21m
Length of Day
14h 20m
Waning Gibbous, 63% of the Moon is Illuminated
May 11
Waning Gibbous
May 12
Last Quarter
May 20
New
May 28
First Quarter
Jun 4
Full

Hourly Weather History & Observations

Time (EDT) Temp. Dew Point Humidity Pressure Visibility Wind Dir Wind Speed Gust Speed Precip Events Conditions
12:51 AM 53.1 °F 36.0 °F 52% 29.86 in 10.0 mi West 11.5 mph - N/A   Partly Cloudy
2:51 AM 50.0 °F 36.0 °F 59% 29.89 in 10.0 mi WSW 6.9 mph - N/A   Clear
3:51 AM 50.0 °F 36.0 °F 59% 29.90 in 10.0 mi West 8.1 mph - N/A   Clear
4:51 AM 50.0 °F 35.1 °F 57% 29.91 in 10.0 mi West 10.4 mph - N/A   Clear
5:51 AM 48.0 °F 36.0 °F 63% 29.94 in 10.0 mi West 8.1 mph - N/A   Clear
6:51 AM 50.0 °F 36.0 °F 59% 29.96 in 10.0 mi West 9.2 mph - N/A   Partly Cloudy
7:51 AM 55.0 °F 35.1 °F 47% 29.98 in 10.0 mi WSW 8.1 mph - N/A   Partly Cloudy
8:51 AM 57.9 °F 35.1 °F 42% 29.99 in 10.0 mi West 13.8 mph - N/A   Scattered Clouds
9:51 AM 62.1 °F 35.1 °F 37% 29.99 in 10.0 mi WNW 13.8 mph - N/A   Mostly Cloudy
10:51 AM 64.0 °F 34.0 °F 33% 30.00 in 10.0 mi WNW 16.1 mph 21.9 mph N/A   Mostly Cloudy
11:51 AM 64.9 °F 33.1 °F 31% 29.99 in 10.0 mi West 11.5 mph 20.7 mph N/A   Mostly Cloudy
12:51 PM 68.0 °F 30.9 °F 25% 29.97 in 10.0 mi West 13.8 mph 25.3 mph N/A   Mostly Cloudy
1:51 PM 70.0 °F 27.0 °F 20% 29.97 in 10.0 mi WNW 19.6 mph 29.9 mph N/A   Scattered Clouds
2:51 PM 71.6 °F 28.4 °F 20% 29.96 in 10.0 mi WNW 15.0 mph 27.6 mph N/A   Scattered Clouds
3:51 PM 72.0 °F 26.1 °F 18% 29.96 in 10.0 mi WNW 23.0 mph 28.8 mph N/A   Scattered Clouds
4:51 PM 72.0 °F 27.0 °F 19% 29.96 in 10.0 mi West 21.9 mph 27.6 mph N/A   Partly Cloudy
5:51 PM 72.0 °F 24.1 °F 17% 29.96 in 10.0 mi WNW 23.0 mph 32.2 mph N/A   Partly Cloudy
6:51 PM 71.1 °F 24.1 °F 17% 29.97 in 10.0 mi WNW 18.4 mph 25.3 mph N/A   Partly Cloudy
7:51 PM 68.0 °F 25.0 °F 20% 30.00 in 10.0 mi NW 11.5 mph - N/A   Partly Cloudy
8:51 PM 66.0 °F 28.0 °F 24% 30.04 in 10.0 mi WNW 6.9 mph - N/A   Partly Cloudy
9:51 PM 64.9 °F 28.0 °F 25% 30.08 in 10.0 mi NNW 8.1 mph - N/A   Clear
10:51 PM 64.0 °F 27.0 °F 25% 30.11 in 10.0 mi NNW 12.7 mph 19.6 mph N/A   Clear
11:51 PM 62.1 °F 27.0 °F 26% 32.48 in 10.0 mi NW 5.8 mph - N/A   Clear